[[{"header":{"parameterUnit":"m.s-1","parameterCategory":1,"la1":30.2991,"la2":30.254,"lo1":-89.0895,"lo2":-89.0444,"dy":0.0017,"dx":0.0017,"nx":28,"ny":28,"refTime":"2025-01-29T03:00:00:Z","depth":0,"parameterNumber":2,"parameterNumberName":"U-component_of_WINDS"},"data":[0,0,0,0,0,0,0,0,0,0,0,0,0,0,0,0,0,0,0,0,0,0,0,0,0,0,0,0,0,0,0,0,0,0,0,0,0,0,0,0,0,0,0,0,0,0,0,0,0,0,0,0,0,0,0,0,0,0,-0.4863,-0.4863,0,-0.4821,-0.482,-0.482,-0.4765,-0.4764,-0.4763,-0.4762,-0.472,-0.472,-0.4719,0,0,0,0,0,0,0,0,0,0,0,0,0,-0.4899,-0.4899,-0.4863,-0.4863,-0.4862,-0.4821,-0.482,-0.4819,-0.4765,-0.4764,-0.4763,-0.4762,-0.472,-0.472,-0.4719,0,0,0,0,0,0,0,0,0,0,0,0,0,-0.4873,-0.4899,-0.4863,-0.483,-0.4827,-0.4821,-0.482,-0.4819,-0.4765,-0.4764,-0.4763,-0.4762,-0.472,-0.472,-0.4719,-0.4743,0,0,-0.4718,-0.4718,0,0,0,0,0,0,0,0,-0.4874,-0.4871,-0.4835,-0.4832,-0.4828,-0.4797,-0.4817,-0.4794,-0.4766,-0.4789,-0.4762,-0.4761,-0.4747,-0.4744,-0.4739,-0.4741,-0.4739,-0.4718,-0.4718,-0.4717,-0.4717,0,0,0,0,0,0,0,-0.4876,-0.4873,-0.4846,-0.4835,-0.4831,-0.4818,-0.4812,-0.4812,-0.4776,-0.4787,-0.4783,-0.4778,-0.4745,-0.474,-0.4738,-0.4739,-0.4718,-0.4718,-0.4717,-0.4717,-0.4758,-0.476,0,0,0,0,0,0,-0.4883,-0.4875,-0.4848,-0.4845,-0.4849,-0.4818,-0.4812,-0.4808,-0.4776,-0.4769,-0.4779,-0.4776,-0.4741,-0.4738,-0.4736,-0.4762,-0.4717,-0.4717,-0.4717,-0.4757,-0.4759,-0.476,0,0,0,0,0,0,-0.4884,-0.4881,-0.4849,-0.4859,-0.4854,-0.4819,-0.4815,-0.4808,-0.4803,-0.477,-0.4763,-0.4781,-0.474,-0.4736,-0.4742,-0.4759,-0.4717,-0.4716,-0.4755,-0.4758,-0.4759,-0.4813,0,0,0,0,0,0,-0.4885,-0.4882,-0.489,-0.4859,-0.4854,-0.4856,-0.4816,-0.4808,-0.4802,-0.4797,-0.477,-0.4764,-0.4738,-0.4743,-0.4741,-0.4758,-0.4716,-0.4754,-0.4756,-0.4759,-0.481,-0.4817,-0.4823,0,0,0,0,0,-0.4886,-0.4907,-0.489,-0.4887,-0.4863,-0.4857,-0.4853,-0.4823,-0.4804,-0.4812,-0.4791,-0.4765,-0.4758,-0.4744,-0.4742,-0.4758,-0.4752,-0.4756,-0.4759,-0.4807,-0.4815,-0.4823,0,0,0,0,0,0,-0.494,-0.4902,-0.4884,-0.4895,-0.4879,-0.4848,-0.4857,-0.4834,-0.4824,-0.482,-0.4783,-0.4777,-0.4787,-0.4773,-0.4758,-0.478,-0.4751,-0.4754,-0.4789,-0.4797,-0.4803,-0.4806,-0.4716,0,0,0,0,0,-0.4954,-0.4951,-0.4918,-0.4931,-0.4924,-0.4892,-0.4888,-0.4867,-0.4849,-0.4843,-0.4822,-0.4807,-0.4801,-0.4798,-0.4791,-0.4808,-0.4801,-0.4818,-0.4825,-0.483,-0.4833,-0.4842,-0.4849,-0.477,-0.477,-0.477,0,0,-0.4981,-0.4959,-0.496,-0.4941,-0.4927,-0.4926,-0.4887,-0.4887,-0.4886,-0.4843,-0.4846,-0.4831,-0.4811,-0.4823,-0.4826,-0.4811,-0.4854,-0.4834,-0.4839,-0.4839,-0.4846,-0.4853,-0.486,-0.4772,-0.4772,-0.4772,0,0,-0.5029,-0.5013,-0.5022,-0.5009,-0.4987,-0.4966,-0.4968,-0.494,-0.4928,-0.4931,-0.4898,-0.4897,-0.4888,-0.4875,-0.4868,-0.4913,-0.4888,-0.4912,-0.4946,-0.4955,-0.4961,-0.4966,-0.4983,-0.4989,-0.4915,-0.4915,-0.4915,0,-0.5066,-0.5062,-0.503,-0.5032,-0.5025,-0.4986,-0.4995,-0.4984,-0.4961,-0.4957,-0.4941,-0.4929,-0.4913,-0.4921,-0.4932,-0.4927,-0.4929,-0.4914,-0.4963,-0.4968,-0.4972,-0.4987,-0.4994,-0.4918,-0.4917,-0.4917,-0.4917,0,-0.5109,-0.5107,-0.5117,-0.5096,-0.509,-0.5096,-0.5065,-0.5063,-0.5042,-0.5023,-0.5027,-0.5006,-0.4994,-0.4995,-0.4974,-0.5,-0.4991,-0.4969,-0.494,-0.4983,-0.4997,-0.5002,-0.4922,-0.4921,-0.492,-0.4919,0,0,-0.519,-0.5151,-0.5155,-0.5146,-0.512,-0.5118,-0.5122,-0.5111,-0.511,-0.5096,-0.5099,-0.5093,-0.5072,-0.5064,-0.5042,-0.5049,-0.5087,-0.5026,-0.5025,-0.5038,-0.5114,-0.5131,-0.5138,-0.507,-0.5071,-0.5072,-0.5116,0,-0.5234,-0.5238,-0.521,-0.5223,-0.5221,-0.5184,-0.5188,-0.5173,-0.5155,-0.5151,-0.5131,-0.5128,-0.5101,-0.5095,-0.5101,-0.5081,-0.5101,-0.5077,-0.5073,-0.5073,-0.5079,-0.5145,-0.5163,-0.5205,-0.5121,-0.5122,-0.5122,0,-0.5285,-0.5274,-0.5287,-0.5261,-0.5259,-0.5263,-0.525,-0.5247,-0.5229,-0.5216,-0.5207,-0.5182,-0.5185,-0.5157,-0.5161,-0.5145,-0.5142,-0.5132,-0.5133,-0.5131,-0.5101,-0.5146,-0.5218,-0.5224,-0.513,-0.513,-0.5129,0,-0.5344,-0.5332,-0.5338,-0.5331,-0.53,-0.5304,-0.5292,-0.5272,-0.5267,-0.5257,-0.5253,-0.5243,-0.5237,-0.523,-0.5203,-0.5185,-0.5211,-0.518,-0.52,-0.5201,-0.5207,-0.5207,-0.528,-0.5205,-0.5205,-0.5205,-0.5205,0,-0.5396,-0.5405,-0.5364,-0.5368,-0.5377,-0.5344,-0.5355,-0.5339,-0.5322,-0.5323,-0.529,-0.5291,-0.5255,-0.5253,-0.5232,-0.5238,-0.5236,-0.5226,-0.522,-0.5229,-0.523,-0.5226,-0.5222,-0.5206,-0.5206,-0.5206,-0.5205,0,-0.5462,-0.5435,-0.5439,-0.541,-0.5403,-0.5411,-0.5386,-0.5389,-0.5369,-0.537,-0.5369,-0.5338,-0.5334,-0.5306,-0.5295,-0.5281,-0.5295,-0.5284,-0.5301,-0.5297,-0.5319,-0.5317,-0.5391,-0.54,-0.532,-0.5321,-0.5321,0,-0.5497,-0.5503,-0.5475,-0.5473,-0.5462,-0.5459,-0.5453,-0.5422,-0.5418,-0.5398,-0.5404,-0.5396,-0.5389,-0.5383,-0.536,-0.5352,-0.534,-0.5366,-0.5338,-0.5347,-0.534,-0.534,-0.5341,-0.5372,-0.5373,-0.5374,-0.5375,0,-0.5562,-0.5548,-0.5542,-0.5531,-0.5526,-0.5516,-0.5504,-0.5504,-0.5469,-0.5466,-0.5461,-0.5455,-0.5444,-0.5437,-0.5425,-0.5413,-0.5388,-0.5384,-0.5388,-0.5397,-0.5407,-0.5402,-0.5318,-0.5382,-0.5382,-0.5381,-0.5381,-0.538,-0.5614,-0.5618,-0.5599,-0.5593,-0.5581,-0.557,-0.5571,-0.5552,-0.5547,-0.5535,-0.5517,-0.5515,-0.5497,-0.5478,-0.5468,-0.5466,-0.5451,-0.5457,-0.5459,-0.5461,-0.5466,-0.5407,-0.5463,-0.5463,-0.5463,-0.5463,-0.5462,0,-0.5677,-0.5663,-0.5658,-0.5643,-0.5638,-0.5615,-0.5601,-0.5599,-0.5597,-0.5583,-0.5576,-0.5571,-0.5564,-0.5541,-0.5532,-0.5535,-0.5524,-0.5534,-0.5533,-0.5531,-0.5479,-0.5476,-0.5543,-0.5543,-0.5543,-0.5543,-0.5543,-0.5543,-0.571,-0.5716,-0.57,-0.57,-0.5685,-0.5683,-0.5676,-0.5667,-0.5656,-0.5651,-0.5645,-0.563,-0.5612,-0.5602,-0.5595,-0.5589,-0.5587,-0.5601,-0.5591,-0.5542,-0.5535,-0.5527,-0.5525,-0.5601,-0.5601,-0.5643,-0.5644,-0.5644]},{"header":{"parameterUnit":"m.s-1","parameterCategory":1,"la1":30.2991,"la2":30.254,"lo1":-89.0895,"lo2":-89.0444,"dy":0.0017,"dx":0.0017,"nx":28,"ny":28,"refTime":"2025-01-29T03:00:00:Z","depth":0,"parameterNumber":3,"parameterNumberName":"V-component_of_WINDS"},"data":[0,0,0,0,0,0,0,0,0,0,0,0,0,0,0,0,0,0,0,0,0,0,0,0,0,0,0,0,0,0,0,0,0,0,0,0,0,0,0,0,0,0,0,0,0,0,0,0,0,0,0,0,0,0,0,0,0,0,0.1983,0.1983,0,0.1969,0.1969,0.1969,0.1962,0.1962,0.1962,0.1962,0.1949,0.1948,0.1948,0,0,0,0,0,0,0,0,0,0,0,0,0,0.2006,0.2005,0.1983,0.1983,0.1983,0.1969,0.1969,0.1969,0.1962,0.1962,0.1962,0.1962,0.1949,0.1948,0.1948,0,0,0,0,0,0,0,0,0,0,0,0,0,0.1994,0.2005,0.1983,0.1978,0.1977,0.1969,0.1969,0.1969,0.1962,0.1962,0.1962,0.1961,0.1949,0.1948,0.1948,0.1945,0,0,0.1946,0.1946,0,0,0,0,0,0,0,0,0.1995,0.1994,0.1979,0.1978,0.1977,0.1967,0.1972,0.1961,0.1962,0.1967,0.1962,0.1961,0.1955,0.1954,0.1951,0.1944,0.1944,0.1946,0.1946,0.1946,0.1946,0,0,0,0,0,0,0,0.1996,0.1994,0.1978,0.1979,0.1978,0.1976,0.1975,0.197,0.1962,0.1967,0.1966,0.1965,0.1954,0.1952,0.1951,0.1944,0.1946,0.1946,0.1945,0.1945,0.1934,0.1934,0,0,0,0,0,0,0.1997,0.1995,0.1978,0.1977,0.1986,0.1976,0.1974,0.197,0.1962,0.196,0.1965,0.1964,0.1953,0.1951,0.195,0.1947,0.1946,0.1945,0.1945,0.1934,0.1934,0.1934,0,0,0,0,0,0,0.1998,0.1996,0.1979,0.1986,0.1984,0.1976,0.1972,0.197,0.1967,0.196,0.1958,0.1963,0.1953,0.1951,0.1946,0.1946,0.1945,0.1945,0.1934,0.1934,0.1934,0.1939,0,0,0,0,0,0,0.1998,0.1996,0.1995,0.1986,0.1983,0.1975,0.1971,0.197,0.1966,0.1966,0.1958,0.1957,0.1952,0.1947,0.1946,0.1945,0.1944,0.1934,0.1934,0.1934,0.1939,0.1939,0.194,0,0,0,0,0,0.1999,0.1997,0.1995,0.1993,0.1981,0.1975,0.1973,0.1968,0.1966,0.1965,0.196,0.1957,0.1946,0.1947,0.1945,0.1945,0.1934,0.1934,0.1934,0.1939,0.1939,0.194,0,0,0,0,0,0,0.2006,0.1996,0.1993,0.1988,0.1982,0.1973,0.1972,0.1968,0.1963,0.1963,0.1957,0.1955,0.1951,0.1947,0.1948,0.1942,0.194,0.194,0.1944,0.1944,0.1945,0.1946,0.1944,0,0,0,0,0,0.2007,0.2002,0.1993,0.199,0.1987,0.198,0.1977,0.1973,0.1967,0.1965,0.1959,0.1954,0.195,0.1947,0.1942,0.1938,0.1937,0.1937,0.1938,0.1938,0.1938,0.1936,0.1936,0.1934,0.1934,0.1934,0,0,0.2009,0.2003,0.2,0.1991,0.1986,0.1982,0.1978,0.1973,0.197,0.1964,0.1959,0.1955,0.1949,0.1945,0.1943,0.1942,0.1938,0.1938,0.1938,0.1938,0.1936,0.1936,0.1936,0.1934,0.1934,0.1934,0,0,0.201,0.2005,0.2001,0.1996,0.1989,0.1984,0.1983,0.1975,0.1972,0.1967,0.1962,0.1958,0.1951,0.1946,0.1943,0.1943,0.194,0.1942,0.1943,0.1941,0.1941,0.1941,0.1941,0.1941,0.1941,0.1941,0.1941,0,0.2014,0.2006,0.2,0.1995,0.1991,0.1985,0.1982,0.1978,0.1969,0.1967,0.1966,0.1956,0.1951,0.1946,0.1946,0.1943,0.1943,0.1942,0.1942,0.1942,0.1942,0.1942,0.1942,0.1942,0.1942,0.1942,0.1942,0,0.2011,0.2006,0.2004,0.1995,0.1991,0.1987,0.198,0.1977,0.1974,0.1969,0.1964,0.1958,0.1953,0.1951,0.1948,0.1945,0.1945,0.1943,0.1941,0.1942,0.1942,0.1942,0.1942,0.1942,0.1942,0.1942,0,0,0.2016,0.2004,0.2003,0.1999,0.1991,0.1987,0.1983,0.1976,0.1974,0.1968,0.1965,0.1958,0.1956,0.1953,0.1949,0.1947,0.1947,0.1945,0.1945,0.1946,0.1944,0.1946,0.1946,0.1945,0.1945,0.1945,0.1945,0,0.2016,0.2008,0.2002,0.1996,0.1991,0.1985,0.1982,0.1976,0.1972,0.1968,0.1963,0.1959,0.1957,0.1954,0.1952,0.1948,0.1947,0.1948,0.1942,0.1942,0.1944,0.1946,0.1947,0.1947,0.1945,0.1945,0.1945,0,0.2015,0.2009,0.2003,0.1994,0.1992,0.1989,0.1983,0.1978,0.1972,0.1969,0.1965,0.1961,0.1957,0.1956,0.195,0.1951,0.1948,0.1946,0.1946,0.1945,0.1943,0.1945,0.1947,0.1947,0.1944,0.1944,0.1944,0,0.202,0.201,0.2005,0.2002,0.1992,0.199,0.1986,0.1979,0.1976,0.1971,0.1969,0.1963,0.196,0.1956,0.1951,0.195,0.1946,0.1944,0.1944,0.1944,0.1943,0.1943,0.1945,0.1941,0.1941,0.1941,0.1941,0,0.202,0.2017,0.2007,0.2004,0.1999,0.1993,0.1989,0.1984,0.1979,0.1975,0.197,0.1967,0.196,0.1956,0.1952,0.1948,0.1947,0.1945,0.1944,0.1945,0.1945,0.1943,0.1943,0.1941,0.1941,0.1941,0.1941,0,0.2025,0.2018,0.2012,0.2003,0.2001,0.1998,0.199,0.1987,0.1983,0.1978,0.1977,0.197,0.1965,0.1959,0.1952,0.195,0.1946,0.1944,0.1948,0.1947,0.1947,0.1947,0.1947,0.1947,0.1944,0.1944,0.1944,0,0.2026,0.2022,0.2013,0.201,0.2006,0.2001,0.1997,0.199,0.1987,0.1979,0.1977,0.1972,0.1967,0.196,0.1954,0.1949,0.1947,0.1948,0.1947,0.1948,0.1948,0.1948,0.1948,0.1948,0.1948,0.1948,0.1948,0,0.2028,0.2024,0.2019,0.2012,0.2008,0.2003,0.1997,0.1995,0.1987,0.1984,0.1978,0.1975,0.1967,0.1962,0.1956,0.1953,0.195,0.1949,0.1948,0.195,0.1952,0.1951,0.1949,0.1949,0.1949,0.1949,0.1949,0.1949,0.203,0.2027,0.202,0.2014,0.2009,0.2004,0.2001,0.1996,0.1991,0.1984,0.1981,0.1975,0.1969,0.1961,0.1957,0.1953,0.1952,0.1952,0.1952,0.1952,0.1952,0.1953,0.1952,0.1952,0.1952,0.1952,0.1952,0,0.2032,0.2027,0.2022,0.2014,0.201,0.2006,0.2,0.1997,0.1992,0.1986,0.1981,0.1975,0.197,0.1964,0.1959,0.1957,0.1955,0.1955,0.1956,0.1955,0.1953,0.1954,0.1957,0.1957,0.1957,0.1957,0.1957,0.1957,0.2033,0.2028,0.2023,0.2016,0.2011,0.2005,0.2002,0.1997,0.1993,0.1986,0.1981,0.1977,0.1972,0.1966,0.1961,0.1959,0.1958,0.1959,0.1957,0.1955,0.1955,0.1955,0.1955,0.1958,0.1958,0.1958,0.1958,0.1958]}]]